When you browse on this site, cookies collect data to enhance your experience and personalize the content and advertising you see.
Visit our Privacy Policy to learn more. By continuing to use the site, you agree to this use of cookies and data.
  • en France
  • Liste des pays
  • À 7 jours
  • Température de l'eau
  • Carte satellitaire
  • Carte météo
  • Widgets météo
  • user-avatar
    Se connecter

    Météo par heure à Caen

    Ce jour, 22 Mai, Mercredi

    Heure Température Précipitation Vent Pression Humidité
    00:00 +9°C° 0 mm 1 m/s 764 mmHg 85%
    01:00 +9°C° 0 mm 1 m/s 764 mmHg 85%
    02:00 +9°C° 0 mm 1 m/s 764 mmHg 85%
    03:00 +9°C° 0 mm 1 m/s 764 mmHg 84%
    04:00 +10°C° 0 mm 1 m/s 764 mmHg 83%
    05:00 +11°C° 0 mm 1 m/s 764 mmHg 82%
    06:00 +11°C° 0 mm 1 m/s 764 mmHg 81%
    07:00 +13°C° 0 mm 1 m/s 764 mmHg 75%
    08:00 +15°C° 0 mm 1 m/s 764 mmHg 70%
    09:00 +18°C° 0 mm 1 m/s 764 mmHg 64%
    10:00 +19°C° 0 mm 1 m/s 764 mmHg 60%
    11:00 +20°C° 0 mm 1 m/s 764 mmHg 57%
    12:00 +20°C° 0 mm 1 m/s 764 mmHg 53%
    13:00 +20°C° 0 mm 2 m/s 764 mmHg 55%
    14:00 +20°C° 0 mm 2 m/s 764 mmHg 58%
    15:00 +20°C° 0 mm 2 m/s 763 mmHg 60%
    16:00 +19°C° 0 mm 2 m/s 763 mmHg 66%
    17:00 +18°C° 0 mm 2 m/s 763 mmHg 72%
    18:00 +17°C° 0 mm 2 m/s 763 mmHg 78%
    19:00 +15°C° 0 mm 2 m/s 763 mmHg 79%
    20:00 +14°C° 0 mm 2 m/s 763 mmHg 81%
    21:00 +12°C° 0 mm 1 m/s 764 mmHg 82%
    22:00 +12°C° 0 mm 1 m/s 764 mmHg 83%
    23:00 +12°C° 0 mm 2 m/s 764 mmHg 84%

    Demain, 23 Mai, Jeudi

    Heure Température Précipitation Vent Pression Humidité
    00:00 +10°C° 0 mm 2 m/s 764 mmHg 84%
    01:00 +12°C° 0 mm 2 m/s 763 mmHg 82%
    02:00 +13°C° 0 mm 2 m/s 763 mmHg 79%
    03:00 +14°C° 0 mm 1 m/s 763 mmHg 77%
    04:00 +14°C° 0 mm 2 m/s 763 mmHg 78%
    05:00 +14°C° 0 mm 2 m/s 763 mmHg 80%
    06:00 +15°C° 0 mm 2 m/s 763 mmHg 81%
    07:00 +16°C° 0 mm 2 m/s 763 mmHg 78%
    08:00 +18°C° 0 mm 2 m/s 763 mmHg 75%
    09:00 +20°C° 0 mm 2 m/s 763 mmHg 72%
    10:00 +20°C° 0.3 mm 2 m/s 763 mmHg 70%
    11:00 +21°C° 0.3 mm 2 m/s 763 mmHg 68%
    12:00 +23°C° 0.3 mm 2 m/s 763 mmHg 66%
    13:00 +21°C° 0.6 mm 2 m/s 762 mmHg 68%
    14:00 +21°C° 0.6 mm 2 m/s 762 mmHg 71%
    15:00 +21°C° 0.6 mm 2 m/s 762 mmHg 73%
    16:00 +20°C° 0.2 mm 2 m/s 762 mmHg 77%
    17:00 +19°C° 0.2 mm 2 m/s 762 mmHg 81%
    18:00 +18°C° 0.2 mm 2 m/s 762 mmHg 85%
    19:00 +16°C° 0 mm 2 m/s 762 mmHg 87%
    20:00 +15°C° 0 mm 1 m/s 763 mmHg 89%
    21:00 +14°C° 0 mm 1 m/s 763 mmHg 91%
    22:00 +13°C° 0 mm 1 m/s 763 mmHg 92%
    23:00 +12°C° 0 mm 2 m/s 763 mmHg 92%

    Après-demain, 24 Mai, Vendredi

    Heure Température Précipitation Vent Pression Humidité
    00:00 +12°C° 0 mm 2 m/s 763 mmHg 93%
    01:00 +10°C° 0 mm 2 m/s 763 mmHg 92%
    02:00 +9°C° 0 mm 2 m/s 763 mmHg 91%
    03:00 +10°C° 0 mm 1 m/s 763 mmHg 90%
    04:00 +9°C° 0 mm 2 m/s 763 mmHg 89%
    05:00 +10°C° 0 mm 2 m/s 763 mmHg 88%
    06:00 +12°C° 0 mm 2 m/s 763 mmHg 87%
    07:00 +13°C° 0 mm 2 m/s 763 mmHg 82%
    08:00 +14°C° 0 mm 3 m/s 763 mmHg 78%
    09:00 +17°C° 0 mm 3 m/s 764 mmHg 73%
    10:00 +17°C° 0 mm 3 m/s 764 mmHg 71%
    11:00 +18°C° 0 mm 4 m/s 764 mmHg 69%
    12:00 +19°C° 0 mm 4 m/s 764 mmHg 67%
    13:00 +18°C° 0 mm 4 m/s 763 mmHg 69%
    14:00 +18°C° 0 mm 4 m/s 763 mmHg 70%
    15:00 +17°C° 0 mm 5 m/s 763 mmHg 71%
    16:00 +17°C° 0 mm 4 m/s 763 mmHg 74%
    17:00 +17°C° 0 mm 4 m/s 763 mmHg 76%
    18:00 +15°C° 0 mm 4 m/s 763 mmHg 79%
    19:00 +14°C° 0 mm 3 m/s 763 mmHg 84%
    20:00 +13°C° 0 mm 3 m/s 763 mmHg 90%
    21:00 +12°C° 0 mm 2 m/s 764 mmHg 95%
    22:00 +12°C° 0 mm 2 m/s 764 mmHg 96%
    23:00 +12°C° 0 mm 2 m/s 764 mmHg 96%

    25 Mai, Samedi

    Heure Température Précipitation Vent Pression Humidité
    00:00 +12°C° 0 mm 2 m/s 764 mmHg 96%
    01:00 +12°C° 0 mm 2 m/s 764 mmHg 97%
    02:00 +12°C° 0 mm 2 m/s 763 mmHg 97%
    03:00 +12°C° 0 mm 2 m/s 763 mmHg 98%
    04:00 +12°C° 0 mm 3 m/s 763 mmHg 97%
    05:00 +12°C° 0 mm 3 m/s 764 mmHg 95%
    06:00 +13°C° 0 mm 3 m/s 764 mmHg 94%
    07:00 +14°C° 0 mm 3 m/s 764 mmHg 88%
    08:00 +16°C° 0 mm 3 m/s 764 mmHg 82%
    09:00 +17°C° 0 mm 3 m/s 764 mmHg 76%
    10:00 +18°C° 0 mm 4 m/s 764 mmHg 73%
    11:00 +18°C° 0 mm 4 m/s 764 mmHg 69%
    12:00 +19°C° 0 mm 4 m/s 764 mmHg 66%
    13:00 +19°C° 0 mm 4 m/s 764 mmHg 67%
    14:00 +19°C° 0 mm 4 m/s 764 mmHg 68%
    15:00 +19°C° 0 mm 4 m/s 764 mmHg 69%
    16:00 +19°C° 0 mm 4 m/s 764 mmHg 73%
    17:00 +18°C° 0 mm 4 m/s 764 mmHg 76%
    18:00 +18°C° 0 mm 3 m/s 764 mmHg 79%
    19:00 +16°C° 0 mm 3 m/s 764 mmHg 84%
    20:00 +14°C° 0 mm 3 m/s 764 mmHg 89%
    21:00 +14°C° 0 mm 2 m/s 764 mmHg 94%
    22:00 +12°C° 0 mm 3 m/s 764 mmHg 95%
    23:00 +12°C° 0 mm 3 m/s 764 mmHg 96%

    26 Mai, Dimanche

    Heure Température Précipitation Vent Pression Humidité
    00:00 +12°C° 0 mm 3 m/s 764 mmHg 97%
    01:00 +12°C° 0 mm 3 m/s 764 mmHg 97%
    02:00 +12°C° 0 mm 3 m/s 764 mmHg 98%
    03:00 +12°C° 0 mm 3 m/s 764 mmHg 98%
    04:00 +13°C° 0 mm 3 m/s 764 mmHg 97%
    05:00 +13°C° 0 mm 3 m/s 764 mmHg 96%
    06:00 +14°C° 0 mm 3 m/s 763 mmHg 95%
    07:00 +16°C° 0 mm 3 m/s 764 mmHg 91%
    08:00 +17°C° 0 mm 3 m/s 764 mmHg 86%
    09:00 +18°C° 0 mm 4 m/s 764 mmHg 82%
    10:00 +19°C° 0 mm 4 m/s 764 mmHg 81%
    11:00 +19°C° 0 mm 4 m/s 764 mmHg 80%
    12:00 +20°C° 0 mm 4 m/s 764 mmHg 78%
    13:00 +20°C° 0.1 mm 4 m/s 763 mmHg 78%
    14:00 +20°C° 0.1 mm 4 m/s 763 mmHg 79%
    15:00 +21°C° 0.1 mm 4 m/s 763 mmHg 79%
    16:00 +20°C° 0 mm 4 m/s 763 mmHg 80%
    17:00 +19°C° 0 mm 4 m/s 762 mmHg 82%
    18:00 +19°C° 0 mm 5 m/s 762 mmHg 83%
    19:00 +18°C° 0 mm 4 m/s 762 mmHg 88%
    20:00 +15°C° 0 mm 4 m/s 763 mmHg 92%
    21:00 +14°C° 0 mm 3 m/s 763 mmHg 96%
    22:00 +14°C° 0 mm 4 m/s 763 mmHg 97%
    23:00 +13°C° 0 mm 4 m/s 763 mmHg 97%

    27 Mai, Lundi

    Heure Température Précipitation Vent Pression Humidité
    00:00 +13°C° 0 mm 4 m/s 763 mmHg 97%
    01:00 +13°C° 0.1 mm 4 m/s 762 mmHg 97%
    02:00 +14°C° 0.1 mm 3 m/s 762 mmHg 97%
    03:00 +14°C° 0.1 mm 3 m/s 762 mmHg 97%
    04:00 +14°C° 0 mm 3 m/s 762 mmHg 97%
    05:00 +15°C° 0 mm 2 m/s 762 mmHg 97%
    06:00 +15°C° 0 mm 2 m/s 762 mmHg 97%
    07:00 +15°C° 0.1 mm 2 m/s 762 mmHg 96%
    08:00 +15°C° 0.1 mm 2 m/s 762 mmHg 96%
    09:00 +15°C° 0.1 mm 2 m/s 762 mmHg 95%
    10:00 +16°C° 0.1 mm 2 m/s 762 mmHg 91%
    11:00 +17°C° 0.1 mm 2 m/s 762 mmHg 87%
    12:00 +18°C° 0.1 mm 2 m/s 762 mmHg 83%
    13:00 +18°C° 0.2 mm 2 m/s 762 mmHg 83%
    14:00 +18°C° 0.2 mm 2 m/s 761 mmHg 83%
    15:00 +18°C° 0.2 mm 3 m/s 761 mmHg 82%
    16:00 +18°C° 0.1 mm 3 m/s 761 mmHg 83%
    17:00 +17°C° 0.1 mm 3 m/s 761 mmHg 84%
    18:00 +17°C° 0.1 mm 3 m/s 761 mmHg 85%
    19:00 +14°C° 0 mm 3 m/s 761 mmHg 88%
    20:00 +14°C° 0 mm 2 m/s 761 mmHg 91%
    21:00 +12°C° 0 mm 2 m/s 761 mmHg 94%
    22:00 +12°C° 0 mm 2 m/s 761 mmHg 94%
    23:00 +10°C° 0 mm 3 m/s 761 mmHg 95%
    Voir plus